Flag for Germany Weather past 2 weeks in Friesoythe, Lower Saxony, Germany

Now
57 °F

Cool.


Feels Like: 56 °F
Forecast: 45 / 56 °F
Wind: 7 mph from Southwest

Location: Meppen-Mil

Current Time: Oct 25, 2014 at 1:13:47 PM

Latest Report: Oct 25, 2014 at 12:20 PM


Visibility: 4 mi

Pressure: 30.07 "Hg

Humidity: 88%

Dew point: 54 °F

Location of FriesoytheLocation

Historic Weather in Friesoythe — Graph

°F

Friesoythe temperature yesterday

Maximum temperature yesterday: 57 °F (at 2:20 PM)
Minimum temperature yesterday: 52 °F (at 5:20 AM)
Average temperature yesterday: 54 °F

Past Weeks' High & Low Weather Summary

 TemperatureHumidityPressure
High72 °F (Oct 19, 1:20 PM)100% (Oct 10, 11:20 PM)30.18 "Hg (Oct 10, 11:20 PM)
Low43 °F (Oct 11, 5:20 AM)56% (Oct 14, 1:20 PM)29.39 "Hg (Oct 21, 4:20 PM)
Average55 °F85%29.86 "Hg
* Reported Oct 10 11:20 AM — Oct 25 11:20 AM, Friesoythe, Weather by CustomWeather, © 2014

Note: Actual official high and low records may vary slightly from our data, if they occured in-between our weather recording intervals... More about our weather records

Advertising

Friesoythe weather history for previous 24 hours

 ConditionsComfort  
Time TempWeatherWind HumidityBarometerVisibility
11:20 AM
Oct 25
54 °FCool.7 mph100%30.04 "Hg2 mi
10:20 AM54 °FCool.7 mph94%30.04 "Hg1 mi
9:20 AM54 °FCool.7 mph94%30.01 "Hg1 mi
8:20 AM52 °FCool.7 mph94%30.01 "Hg1 mi
7:20 AM52 °FCool.8 mph94%29.98 "Hg2 mi
6:20 AM52 °FCool.7 mph94%29.98 "Hg2 mi
5:20 AM52 °FCool.7 mph94%29.98 "Hg3 mi
4:20 AM52 °FCool.7 mph94%29.98 "Hg4 mi
3:20 AM52 °FCool.8 mph94%29.98 "Hg2 mi
2:20 AM52 °FCool.7 mph88%30.01 "Hg5 mi
1:20 AM54 °FCool.7 mph77%30.01 "HgN/A
12:20 AM54 °FCool.8 mph82%30.01 "HgN/A
11:20 PM
Oct 24
54 °FCool.9 mph82%30.01 "HgN/A
10:20 PM52 °FCool.6 mph88%30.01 "Hg5 mi
9:20 PM54 °FCool.9 mph77%30.04 "HgN/A
8:20 PM54 °FCool.7 mph77%30.04 "HgN/A
7:20 PM54 °FCool.7 mph77%30.04 "HgN/A
6:20 PM55 °FCool.6 mph72%30.04 "HgN/A
5:20 PM55 °FCool.8 mph72%30.04 "HgN/A
4:20 PM55 °FCool.7 mph72%30.04 "HgN/A
3:20 PM57 °FCool.9 mph67%30.07 "HgN/A
2:20 PM57 °FCool.8 mph67%30.07 "HgN/A
1:20 PM55 °FPartly sunny.9 mph67%30.09 "HgN/A
Weather by CustomWeather, © 2014

See weather overviewHow to use our weather pages